Location: Aspelaere
(50.8419°N, 3.9574°E)
Time: 13:32:06
(UTC+00:00)

Daily predictions for brighter satellites

Satellite Brightness Start Highest point End
(mag) Time Altitude Azimuth Time Altitude Azimuth Time Altitude Azimuth
BREEZE-M DEB (TANK) 3.7 20:36:50 10° SW 20:40:27 48° SE 20:52:10 10° ENE
COSMOS 2406 3.9 20:36:25 10° SW 20:42:06 63° NW 20:47:49 10° NNE
ARGOS Delta rocket 4.1 20:39:58 10° S 20:44:22 63° W 20:48:45 10° NNW
Cosmos 1733 Rocket 3.6 20:44:04 10° N 20:48:20 46° ENE 20:52:36 10° SSE
SL-4 R/B 2.0 20:45:10 10° W 20:48:59 79° N 20:53:04 10° E
Cosmos 2278 4.4 20:43:38 10° NW 20:49:11 53° WSW 20:54:41 10° S
Cosmos 1300 2.7 20:50:01 10° N 20:53:33 58° ENE 20:57:04 10° SSE
S3M 4.2 20:47:22 10° N 20:53:47 86° W 21:00:06 10° S
Ariane Rocket 3.1 20:49:46 10° SSE 20:54:51 82° ENE 20:59:59 10° NNW
USA 281 4.3 20:49:09 10° ESE 20:55:01 36° NE 21:00:53 10° NNW
Timation 1 Rocket 4.4 20:51:00 10° SSW 20:56:50 62° ESE 21:02:44 10° NE
SL-27 R/B 3.0 20:54:57 10° SSE 20:57:19 26° ESE 20:59:45 10° NE
Okean-O 4.3 20:54:09 10° SSW 20:58:03 30° W 21:01:58 10° NNW
Cosmos 1400 Rocket 2.7 20:57:15 10° S 21:01:07 84° E 21:04:59 10° NNE
Cosmos 2219 Rocket 2.8 20:55:35 10° NNW 21:01:07 51° NE 21:06:39 10° SE
COSMOS 2428 4.1 20:57:34 10° NNW 21:02:36 31° NE 21:07:37 10° ESE
BREEZE-M DEB (TANK) 2.4 21:02:09 10° W 21:04:05 37° SSW 21:06:46 10° ESE
Cosmos 1356 Rocket 3.7 21:00:30 10° S 21:04:34 51° E 21:08:40 10° NNE
Cosmos 2266 Rocket 4.1 20:59:56 10° S 21:06:19 88° WNW 21:12:46 10° N
USA 245 4.0 21:03:07 10° S 21:06:40 55° W 21:11:12 10° NNW
ATLAS CENTAUR R/B 1.3 21:03:51 10° SSW 21:07:10 41° ESE 21:10:34 10° NE
Cosmos 1850 Rocket 4.0 21:04:06 10° S 21:09:14 63° ESE 21:14:23 10° NNE
Cosmos 1655 Rocket 4.1 21:05:32 10° S 21:11:53 75° E 21:18:18 10° NNE
OPS 8737 4.3 21:10:47 10° NW 21:13:42 62° NE 21:16:30 12° SE
Meteor 1-4 Rocket 3.3 21:13:07 13° SSE 21:15:14 26° E 21:17:49 10° NE
Cosmos 2228 Rocket 3.2 21:11:03 10° S 21:15:35 73° E 21:20:10 10° NNE
MOS 1 Rocket 3.8 21:11:08 10° S 21:16:30 71° WSW 21:21:47 10° NNW
Okean O Rocket 4.4 21:15:47 10° WSW 21:17:31 12° W 21:19:15 10° WNW
Cosmos 1953 3.3 21:14:19 10° N 21:17:48 32° ENE 21:20:51 12° SE
Cosmos 1315 Rocket 3.9 21:17:28 12° SSE 21:20:31 29° E 21:23:59 10° NNE
Cosmos 968 Rocket 3.6 21:17:41 10° S 21:22:42 57° ESE 21:27:48 10° NNE
Spot 1 4.4 21:18:53 10° NNE 21:23:21 55° ESE 21:28:02 10° S
SPOT 3 Rocket 3.9 21:18:44 10° S 21:23:50 65° WSW 21:29:00 10° NNW
SeaSat 1 3.4 21:19:33 10° S 21:24:09 40° WSW 21:28:47 10° NW
Cosmos 2360 Rocket 2.4 21:20:37 10° NNW 21:26:16 68° WSW 21:31:30 12° SSE
Cosmos 1741 Rocket 4.0 21:24:26 10° SSW 21:29:44 85° ESE 21:35:04 10° NNE
Cosmos 1242 Rocket 3.9 21:29:30 13° ESE 21:30:29 15° E 21:32:08 10° NE
BlueWalker 3 3.5 21:31:50 15° SE 21:32:11 15° SE 21:34:24 10° E
Cosmos 1814 Rocket 4.1 21:27:16 10° NNW 21:32:36 88° WSW 21:37:16 14° SSE
MetOp-A 4.1 21:28:25 12° SSE 21:33:16 86° ENE 21:38:33 10° NNW
SL-16 R/B 3.6 21:33:01 10° NW 21:37:53 30° WSW 21:42:43 10° SSW
COSMOS 2455 4.4 21:35:30 12° SE 21:38:22 17° ESE 21:42:03 10° ENE
Landsat 5 3.4 21:35:58 10° NNE 21:39:59 75° ESE 21:44:07 10° S
USA 234 3.2 21:33:55 10° ENE 21:40:30 78° SSE 21:47:03 10° SW
Cosmos 2333 Rocket 2.7 21:36:32 10° NW 21:42:10 57° WSW 21:47:09 13° S
SL-14 R/B 4.0 21:40:42 10° SSW 21:44:23 51° WNW 21:48:07 10° N
Cosmos 1703 Rocket 4.3 21:43:33 16° SSE 21:46:44 39° E 21:50:53 10° NNE
Cosmos 1346 Rocket 3.8 21:43:57 10° NNW 21:47:35 39° W 21:51:09 10° SSW
Cosmos 1862 Rocket 3.7 21:43:14 10° SSW 21:47:38 75° WNW 21:52:05 10° N
DNEPR-1 R/B 4.5 21:43:06 10° NW 21:49:57 74° SW 21:54:25 16° SSE
Okean 3 3.4 21:46:09 10° S 21:50:18 84° WNW 21:54:30 10° N
Cosmos 1455 2.0 21:49:14 10° N 21:52:44 67° E 21:55:03 20° SSE
Cosmos 1408 4.2 21:55:12 13° ESE 21:56:06 14° E 21:57:49 10° NE
Cosmos 1833 4.2 21:51:48 10° SSW 21:57:26 86° ESE 22:03:05 10° NNE
EXPRESS MD2 1.7 21:55:38 10° W 21:58:01 70° S 21:59:45 14° E
CZ-4C R/B 3.4 21:58:28 14° SE 21:59:49 16° ESE 22:02:51 10° ENE
Cosmos 2237 Rocket 3.5 21:56:19 10° NNW 22:01:29 34° NE 22:06:36 10° ESE
H-2A R/B 3.5 21:58:41 15° SE 22:01:47 37° ENE 22:05:43 10° N
Cosmos 1932 4.4 21:57:43 10° SSW 22:04:00 69° SE 22:10:15 10° NE
Cosmos 2322 3.7 21:59:29 10° NNW 22:05:14 83° ENE 22:09:35 18° SSE
SJ 16-02 1.4 22:00:58 10° SSW 22:05:17 80° WNW 22:09:40 10° NNE
Terra 3.8 22:02:25 10° SW 22:05:59 21° W 22:09:34 10° NW
CZ-2C R/B 3.9 22:02:09 10° NNE 22:06:29 51° E 22:09:29 19° S
Aureole 3 4.3 22:07:15 10° SSW 22:11:14 55° WNW 22:16:14 10° N
Cosmos 2322 Rocket 3.9 22:15:43 10° NW 22:20:02 23° WSW 22:24:21 10° SSW
Cosmos 1238 4.5 22:21:35 10° N 22:24:46 70° E 22:26:41 25° SSE
ARIANE 5 R/B 2.6 22:23:17 21° S 22:26:05 78° WSW 22:30:27 10° NNW
NOSS 5 (C) 4.2 22:23:19 10° NW 22:26:30 71° SW 22:27:59 28° SSE
ATLAS 2AS CENTAUR R/B 3.7 22:21:06 10° NW 22:27:02 33° WSW 22:31:35 15° S
SL-4 R/B 1.9 22:23:52 10° WNW 22:27:50 78° SSW 22:31:56 11° ESE
Cosmos 2297 Rocket 3.4 22:27:17 18° SE 22:29:55 25° ESE 22:34:28 10° NE
Okean 1-7 3.8 22:30:05 12° SSW 22:34:00 50° WNW 22:38:13 10° N
USA 281 3.4 22:34:22 19° SSE 22:39:11 66° WSW 22:45:46 10° NNW
Cosmos 1745 Rocket 4.0 22:34:59 18° S 22:39:51 80° E 22:46:15 10° NNE
Cosmos 1908 Rocket 4.4 22:36:33 10° NNW 22:40:37 41° W 22:43:32 17° SSW
GP-B 3.4 22:36:26 10° N 22:40:48 64° W 22:43:51 19° SSW
Cosmos 1782 Rocket 3.6 22:39:17 10° NNW 22:43:36 70° W 22:46:09 24° S
Spot 4 3.8 22:41:21 23° SSE 22:44:22 82° ENE 22:49:13 10° NNW
Cosmos 2219 Rocket 3.3 22:39:51 10° NW 22:44:54 34° WSW 22:48:35 17° SSW
ATLAS CENTAUR R/B 3.2 22:41:48 10° W 22:44:55 28° NW 22:48:09 10° NNE
Nadezhda 1 Rocket 4.1 22:39:45 10° NNW 22:46:03 71° W 22:50:31 20° S
COSMOS 2428 2.9 22:41:38 10° NW 22:47:16 63° WSW 22:50:54 22° S
Meteor 2-5 Rocket 4.3 22:46:15 21° SSE 22:49:54 47° E 22:55:27 10° NNE
BREEZE-M DEB (TANK) 2.2 22:48:17 10° W 22:52:06 57° N 22:54:08 10° E
Cosmos 1953 4.0 22:50:23 10° NW 22:53:29 23° W 22:55:58 13° SW
Cosmos 2098 Rocket 4.3 22:47:46 10° N 22:54:21 63° ENE 22:58:50 20° SSE
Cosmos 2181 Rocket 4.5 22:49:05 10° N 22:55:09 52° ENE 22:59:29 19° SE
Cosmos 1315 Rocket 4.5 22:53:06 10° SW 22:56:37 29° WNW 23:00:10 10° N
H-2A R/B 3.7 22:54:10 10° NE 22:57:24 21° E 22:59:07 17° SE
PSLV R/B 4.1 22:55:06 10° N 22:59:05 64° WNW 23:01:43 20° SSW
Cosmos 1300 Rocket 3.9 22:56:32 10° NNW 23:00:46 56° W 23:03:09 24° SSW
Cosmos 1242 Rocket 3.7 23:00:40 15° WSW 23:02:18 25° WNW 23:04:41 10° N
Cosmos 304 Rocket 4.0 23:03:17 26° S 23:05:44 52° ESE 23:10:23 10° NNE
Cosmos 158 Rocket 4.5 23:02:09 10° NNW 23:07:15 49° WSW 23:10:13 23° S
Cosmos 2151 Rocket 4.1 23:04:39 10° N 23:08:57 49° ENE 23:11:26 23° SE
Cosmos 2360 Rocket 4.4 23:07:07 10° WNW 23:09:10 12° W 23:11:13 10° WSW
BlueWalker 3 1.8 23:06:05 10° SW 23:09:46 62° SSE 23:13:29 10° ENE
Cosmos 405 Rocket 2.8 23:06:37 10° N 23:10:21 63° ENE 23:12:07 29° SSE
Okean 2 Rocket 3.6 23:11:06 10° N 23:15:31 53° ENE 23:18:04 23° SE
ALOS 2 2.7 23:14:27 27° S 23:16:45 70° WSW 23:21:09 10° NNW
Cosmos 1674 Rocket 4.2 23:20:04 25° SSE 23:22:08 42° E 23:26:15 10° NNE
Cosmos 1378 Rocket 4.0 23:20:47 27° SSE 23:22:52 51° E 23:27:08 10° NNE
COSMOS 2455 2.8 23:18:35 17° SSW 23:23:22 80° SE 23:29:26 10° NE
USA 234 3.9 23:17:00 10° ENE 23:23:25 59° NNW 23:29:49 10° W
NOSS 0 Rocket 4.3 23:20:01 10° NW 23:26:01 50° WSW 23:29:40 23° S
CENTAUR R/B 3.5 23:24:42 21° SSE 23:27:16 29° ESE 23:32:55 10° NE
Cosmos 1408 3.5 23:27:13 21° WSW 23:28:33 31° WNW 23:31:17 10° N
Cosmos 773 Rocket 4.2 23:24:10 10° NNW 23:29:13 57° WSW 23:32:01 26° S
Cosmos 1703 3.6 23:34:51 26° SW 23:36:40 54° WNW 23:40:18 10° N
H-2A R/B 3.9 23:34:40 19° SW 23:36:46 28° W 23:40:28 10° NW
Cosmos 2221 Rocket 3.9 23:34:53 27° SSE 23:37:04 55° E 23:41:26 10° NNE
Cosmos 1892 2.8 23:37:30 33° SSE 23:38:44 52° E 23:42:10 10° NNE
SL-16 R/B 2.9 23:33:35 10° NNW 23:39:11 53° NE 23:44:44 10° SE
Cosmos 1709 Rocket 4.4 23:34:37 18° SSW 23:39:28 59° WNW 23:45:45 10° N
Cosmos 1174 4.0 23:34:23 10° NW 23:39:29 74° SW 23:41:41 27° SSE
Sich 1 Rocket 3.5 23:36:42 10° N 23:41:08 90° SW 23:43:22 29° S
Nadezhda 3 Rocket 4.4 23:36:20 10° N 23:42:31 56° ENE 23:47:09 18° SSE
SJ 16-02 4.1 23:42:07 10° WNW 23:44:25 14° NW 23:46:42 10° NNW
Cosmos 2237 Rocket 2.4 23:40:17 10° NW 23:45:50 55° WSW 23:48:59 25° S
Cosmos 1538 Rocket 4.4 23:41:39 10° NNW 23:46:48 60° ENE 23:50:58 16° SE
Cosmos 1777 Rocket 4.0 23:43:35 24° SSW 23:46:51 84° ESE 23:52:10 10° NNE
CZ-4C R/B 1.9 23:43:30 18° SW 23:47:01 89° SE 23:52:55 10° NE
Cosmos 1503 Rocket 4.0 23:43:28 22° SSW 23:47:02 83° WNW 23:52:21 10° NNE
BREEZE-M DEB (TANK) 2.8 23:39:25 10° W 23:48:34 67° SSW 23:51:35 10° ESE
Cosmos 2227 Rocket 2.4 23:50:16 25° S 23:53:28 56° ESE 23:59:01 10° NE
GEOS 3 Rocket 4.2 23:49:34 10° NE 23:54:25 40° ESE 23:56:49 25° S
